Theta_e
327 324 324 321 311 313 310 312 317 319 320 325 325 322 320 331 328 326 348 347 352 353 360 363 366 367 366 365 365 363 361 362 362 361 361 361 362 362 362 362 361 358 354 352 351 350 351 351 351
321 321 321 316 308 307 310 318 318 321 322 325 324 322 319 328 339 339 337 350 353 354 358 361 365 366 366 365 364 363 362 362 362 361 361 361 362 362 361 361 359 356 352 350 348 349 349 350 350
322 323 312 310 309 306 310 319 321 323 325 323 322 324 325 328 339 340 343 350 353 354 357 362 365 366 366 366 364 363 362 362 362 362 361 361 362 362 361 360 358 355 350 348 346 346 347 347 347
318 317 314 306 305 312 314 319 323 321 323 324 324 320 328 335 337 345 345 348 352 352 355 361 364 365 365 366 364 363 363 362 362 362 361 362 361 361 360 359 357 354 351 347 346 347 346 344 343
316 313 306 306 307 312 317 322 321 318 321 321 323 320 325 336 342 345 345 347 347 350 358 359 363 364 365 365 364 363 363 362 362 362 362 361 361 360 359 357 355 354 352 349 346 346 346 345 344
308 311 302 302 306 312 316 318 320 319 320 321 319 320 326 337 340 344 346 348 348 353 359 357 362 363 363 364 364 363 362 362 362 361 361 361 360 359 358 356 354 352 351 350 347 347 346 345 345
306 305 303 304 304 307 312 318 315 316 318 318 322 317 325 332 341 344 345 347 349 354 359 356 356 361 363 363 362 362 362 361 361 361 361 360 359 358 357 355 354 353 351 351 349 347 346 346 344
309 306 301 303 304 304 313 315 317 315 315 321 320 314 316 324 332 343 344 344 346 348 357 354 354 354 357 360 362 361 361 361 360 360 360 359 358 357 356 355 354 354 352 351 349 348 347 346 346
312 301 299 301 302 306 312 310 316 319 316 317 317 318 322 324 328 333 339 340 342 344 355 352 349 351 352 354 359 360 361 361 360 360 359 356 353 353 352 351 353 354 353 351 351 350 349 348 348
306 302 302 307 308 307 309 310 311 310 312 312 314 318 321 323 323 327 333 335 338 341 348 352 350 350 349 347 356 357 358 358 358 357 357 354 351 352 347 349 354 354 353 352 351 351 351 350 340
307 302 306 308 310 310 309 308 311 309 307 310 311 315 318 320 324 324 328 334 338 341 343 353 355 354 350 348 354 350 351 353 355 357 357 354 349 351 345 349 347 350 352 346 347 347 344 340 341
303 307 308 308 310 309 308 310 308 309 309 313 313 314 315 316 319 321 324 330 336 338 344 347 357 359 357 352 353 351 346 347 347 349 355 353 351 350 347 348 346 346 345 342 343 343 345 346 353
305 306 308 309 309 309 309 307 307 308 311 312 313 314 313 315 317 321 325 327 328 336 346 347 348 356 357 362 354 353 347 345 345 347 352 353 348 351 352 350 349 347 344 344 346 346 350 350 352
308 307 307 308 308 308 306 306 307 308 312 312 312 312 313 314 315 319 325 326 335 339 347 349 342 346 364 359 362 359 351 349 347 348 351 352 351 349 349 351 353 351 348 348 346 347 347 352 352
308 304 306 306 307 306 308 303 304 309 311 310 311 313 313 315 316 318 322 328 332 343 347 349 343 337 352 361 362 364 358 349 346 347 351 351 353 350 348 347 346 348 352 353 351 349 351 351 349
304 304 298 304 306 307 306 298 306 311 310 309 310 311 313 315 317 321 323 329 340 340 340 351 348 355 361 364 364 362 362 359 355 350 352 352 351 354 354 348 346 347 348 348 347 345 345 343 342
302 296 298 301 307 306 305 300 307 310 310 309 310 311 312 314 318 322 324 329 344 341 343 344 351 351 362 364 363 363 362 361 360 358 353 356 354 352 357 348 351 352 346 344 344 344 342 340 340
296 297 299 299 305 305 303 302 305 308 309 309 310 311 312 313 316 321 324 326 333 333 339 340 342 350 365 364 363 362 361 359 358 357 355 351 355 355 352 355 350 357 349 349 349 347 346 343 342
301 300 299 303 306 303 302 302 305 308 308 308 310 311 313 314 317 322 324 328 331 331 334 341 343 346 351 358 356 357 355 356 356 357 358 357 357 357 356 352 352 354 351 349 351 349 345 341 346
302 299 298 302 304 303 302 301 305 307 308 309 310 311 313 315 316 318 323 328 330 333 337 338 340 350 347 345 357 357 356 353 356 356 356 360 356 356 354 352 351 350 351 355 352 347 341 341 343
300 299 298 298 302 304 302 299 302 306 308 310 311 313 314 314 315 319 321 327 329 332 333 336 343 345 351 347 343 346 354 352 349 350 353 355 358 357 355 353 352 351 351 349 350 349 342 337 344
296 303 301 300 298 293 302 292 301 305 306 309 310 311 312 313 316 318 320 325 326 327 331 337 342 345 342 348 346 344 340 343 344 347 350 352 355 354 355 355 355 353 351 349 348 348 345 341 341
299 303 301 300 298 297 297 294 298 304 303 306 310 312 314 315 316 317 318 322 323 327 329 334 340 340 344 348 348 340 339 337 339 342 346 347 354 354 353 354 350 351 351 350 348 345 345 344 344
304 301 300 300 297 291 295 295 296 300 304 308 311 313 313 314 315 316 318 320 322 324 327 332 334 339 341 344 344 342 342 340 339 340 342 344 342 354 355 354 352 347 350 347 347 348 347 347 347
302 298 290 289 290 290 299 296 300 307 309 310 310 311 313 314 314 314 315 315 321 323 326 325 332 331 335 336 338 340 342 343 341 338 338 340 338 339 347 354 352 346 344 347 346 346 346 348 346
299 298 291 284 287 290 299 293 299 309 311 312 313 312 314 313 314 314 314 316 315 320 324 326 327 325 330 329 333 339 342 335 335 337 336 335 335 335 341 341 344 332 329 332 334 333 338 340 344
298 294 300 294 295 291 294 299 304 308 309 310 310 311 312 313 314 313 314 316 318 321 325 327 327 327 327 325 327 333 337 336 335 338 337 334 336 337 341 340 339 330 325 322 320 327 324 323 332
301 303 292 294 286 285 291 294 296 301 304 308 308 309 311 313 312 313 313 317 319 320 326 325 326 325 325 325 326 325 327 328 335 336 336 337 339 338 337 341 342 328 325 324 327 326 327 323 322
298 296 298 297 294 287 286 291 305 304 306 307 309 309 310 311 311 312 312 315 314 315 315 317 322 322 322 323 325 324 324 325 327 330 333 336 337 339 339 342 341 334 331 330 330 326 326 324 316
302 298 299 291 290 294 292 291 306 307 307 308 308 309 310 310 310 310 311 312 311 313 314 315 321 320 319 320 320 324 325 323 324 325 329 333 333 335 337 339 337 333 331 329 333 321 317 320 316
Wind_Speed
17 17 12 10 7 8 15 20 23 6 9 3 10 7 15 17 10 7 9 17 22 19 16 17 18 19 17 16 15 14 14 13 13 13 12 12 11 10 10 10 10 10 10 10 9 9 8 8 8
11 17 12 10 11 12 13 16 5 10 12 10 5 5 8 17 17 15 12 18 21 17 14 15 17 17 18 16 14 14 14 14 13 13 12 11 11 11 10 9 9 9 9 9 9 8 8 7 6
14 16 10 7 12 14 16 12 7 8 5 3 4 3 7 10 11 9 15 19 20 16 14 14 16 16 17 17 16 14 13 14 14 14 13 11 11 10 9 8 8 8 9 9 8 7 6 5 5
7 8 8 10 17 20 21 7 9 4 4 3 8 1 8 11 8 13 14 18 18 18 16 16 15 15 16 16 16 16 15 13 14 13 13 12 11 10 9 7 7 7 7 7 7 6 4 4 3
7 7 12 15 17 21 11 2 9 8 3 0 4 9 13 10 9 15 11 13 15 18 18 16 14 14 15 16 15 15 16 15 14 14 14 13 12 11 10 8 6 6 6 7 7 6 4 3 2
9 9 12 13 18 19 10 7 1 8 15 1 1 7 13 11 10 13 12 11 14 18 16 15 15 14 14 14 14 14 14 16 16 15 14 14 13 12 11 9 8 7 6 5 5 5 4 2 1
14 13 17 18 17 21 22 7 10 9 12 3 9 0 8 13 9 10 10 9 14 18 16 13 14 12 13 14 14 14 14 14 14 15 14 13 12 12 11 10 9 8 7 7 6 5 3 4 4
12 12 22 18 17 22 18 17 11 7 14 10 5 4 7 8 2 5 9 10 14 13 17 14 12 13 11 11 13 13 14 14 14 14 15 15 13 12 11 11 11 10 9 8 8 7 6 6 7
15 12 15 20 18 17 18 10 14 6 11 6 1 9 7 6 5 9 10 12 13 12 15 15 16 13 12 12 12 13 15 14 14 14 15 13 8 10 13 11 14 14 13 12 11 10 9 9 10
14 12 20 14 20 16 17 14 13 2 16 8 12 12 12 3 8 10 11 9 11 15 17 16 15 15 14 11 13 11 11 9 9 10 11 7 7 9 11 11 14 12 11 11 12 12 11 9 7
16 17 17 18 17 6 9 12 4 8 11 9 14 14 16 13 12 8 13 13 14 13 13 19 14 12 13 10 9 6 6 7 8 10 10 8 7 5 7 7 7 6 9 6 8 7 6 10 9
19 20 19 22 10 2 12 11 11 11 15 16 13 16 10 11 8 7 12 12 14 11 8 12 4 12 7 7 9 9 8 8 7 9 10 8 6 6 6 6 9 8 6 8 7 7 9 10 7
20 19 19 17 18 9 10 14 16 16 15 11 12 13 9 9 11 13 7 9 8 9 9 8 18 10 5 7 7 9 9 9 10 10 11 9 9 5 5 5 6 8 8 9 6 7 5 5 4
16 19 16 18 14 12 15 17 16 16 15 15 13 14 10 12 12 10 6 7 4 4 8 10 14 13 10 8 6 4 8 7 9 9 10 12 8 7 7 6 5 5 6 8 6 5 5 4 4
15 18 12 16 20 16 16 19 19 16 17 15 16 15 15 15 15 14 10 8 7 1 12 13 10 8 10 9 8 4 4 7 7 8 10 14 9 8 8 8 6 5 4 6 5 6 5 4 4
14 15 17 18 20 20 18 18 18 20 21 18 13 13 13 13 12 8 8 6 3 4 6 10 18 23 20 12 7 5 5 4 6 7 7 14 14 8 6 6 8 8 6 5 4 5 5 5 5
15 14 20 22 21 22 21 20 15 20 6 13 12 12 14 14 9 8 7 4 2 2 3 2 5 7 14 12 9 8 8 6 5 6 7 9 13 13 7 9 6 6 7 7 7 5 4 5 8
18 19 20 17 13 13 14 13 15 14 12 12 12 13 12 11 12 11 9 7 5 5 8 7 5 7 6 9 8 7 8 8 8 7 7 11 10 14 11 7 10 7 9 9 8 8 6 4 4
21 21 16 14 13 15 18 14 14 12 14 15 16 16 15 13 13 7 7 6 6 6 5 3 4 7 4 5 7 7 9 9 10 10 13 12 12 14 13 10 11 11 9 12 10 7 7 6 5
18 18 17 17 19 16 16 16 15 18 19 17 16 13 13 14 13 11 8 7 7 8 8 6 5 4 4 4 5 4 7 10 9 9 10 8 13 14 13 14 13 15 11 9 9 11 8 8 9
16 15 16 19 19 19 17 16 16 20 19 18 17 14 13 12 11 11 10 7 7 6 5 1 3 5 4 6 5 5 7 7 6 9 13 12 13 16 16 15 14 14 14 12 11 9 13 11 10
19 16 19 19 17 14 17 15 18 20 20 22 21 19 16 13 11 9 9 7 7 5 5 4 4 2 3 5 4 8 6 8 10 9 6 11 18 19 18 18 17 19 13 14 13 13 13 12 10
17 17 17 19 16 17 18 14 14 16 18 18 16 16 14 13 9 10 9 9 7 5 4 5 6 6 2 1 4 6 8 7 5 7 11 11 11 15 18 19 20 16 14 14 15 16 15 13 10
8 14 18 15 15 16 19 19 16 17 18 17 17 14 13 9 13 8 8 4 1 5 5 5 7 6 7 4 5 6 7 8 8 9 9 9 10 8 17 19 17 19 16 17 13 15 17 15 15
14 12 10 14 15 15 21 20 15 14 12 11 7 7 14 11 8 6 6 2 4 3 3 5 4 6 6 7 6 6 6 6 8 9 10 10 9 8 9 19 19 12 7 15 15 16 19 20 13
16 11 11 19 15 18 23 14 14 14 16 14 9 5 14 10 8 6 2 2 3 4 3 3 4 7 7 9 8 6 5 6 7 7 8 10 10 10 12 10 8 14 11 15 20 13 14 11 11
10 11 14 16 15 17 15 23 20 10 13 18 9 7 7 9 8 4 4 4 4 5 3 3 4 4 5 10 10 7 6 7 8 9 10 10 11 11 14 15 4 11 16 21 30 11 0 8 24
13 12 7 4 6 13 13 13 10 14 12 9 7 2 5 6 2 4 6 6 6 6 3 7 6 4 3 6 8 8 10 11 8 7 9 12 12 12 16 16 6 10 9 14 18 8 6 9 22
16 12 11 12 13 7 12 10 2 10 14 13 4 4 6 6 8 10 12 9 9 11 12 11 5 5 6 6 5 6 8 11 13 10 8 10 11 12 14 15 11 10 13 11 9 10 9 8 2
19 19 17 7 10 11 13 8 14 9 6 7 11 8 5 7 10 11 11 11 9 10 9 11 6 3 6 6 7 6 5 8 10 11 13 10 11 11 12 13 8 11 8 8 11 11 9 7 10
Wind_Direction
298 300 305 279 252 225 251 246 254 165 278 346 38 349 342 72 32 63 149 109 117 132 134 139 136 136 139 143 143 141 140 140 137 134 132 127 121 119 116 117 116 116 115 111 107 105 102 98 93
295 300 283 262 245 247 232 251 356 165 43 33 21 281 277 80 91 115 119 117 122 135 144 138 137 139 143 145 144 143 145 145 142 138 136 134 130 131 128 125 123 123 120 116 114 113 111 109 104
276 271 281 244 242 245 261 44 26 340 298 271 255 36 352 55 100 89 120 123 125 137 152 133 138 140 142 145 147 146 149 150 148 144 140 137 133 131 130 132 130 131 125 118 115 111 113 112 111
278 266 243 261 261 250 257 325 248 284 207 6 338 40 96 56 42 109 134 134 137 141 148 138 137 138 140 144 148 151 153 155 150 146 141 138 136 129 127 131 132 128 121 118 116 114 112 112 105
237 273 255 250 244 264 282 152 38 294 307 333 98 274 96 80 84 110 136 139 149 142 125 141 136 140 144 147 151 156 156 154 154 150 146 142 137 131 130 131 124 125 126 129 131 128 128 123 107
244 225 257 250 247 255 269 300 131 267 301 166 242 274 103 128 129 133 145 148 145 119 135 146 144 144 147 149 155 156 160 155 156 153 148 143 142 143 142 142 142 142 138 139 142 139 141 150 189
243 239 246 245 257 276 288 184 254 245 272 278 27 158 114 96 85 126 142 151 130 135 135 152 159 154 149 151 154 157 158 157 156 150 145 144 146 148 150 149 152 154 156 160 157 163 177 215 219
237 248 256 245 253 251 250 276 233 225 265 88 58 260 83 74 72 148 165 166 143 153 137 152 163 168 168 165 159 161 161 159 154 152 151 150 151 157 162 160 168 167 168 171 173 180 197 226 241
222 246 247 250 258 266 261 263 250 206 262 306 293 235 130 101 195 230 210 169 163 162 138 155 173 174 181 170 172 165 166 163 160 159 160 155 174 174 169 194 175 178 178 179 186 192 202 219 233
228 230 245 246 248 264 260 266 279 221 249 238 268 268 283 232 240 231 206 191 189 164 162 158 177 172 184 182 160 177 178 181 185 183 172 190 205 174 184 179 169 183 193 195 194 197 206 221 238
219 243 247 243 256 268 308 280 275 297 263 262 265 245 239 237 226 239 242 220 191 198 181 158 166 163 186 205 149 174 182 186 188 196 177 195 200 205 196 148 166 177 201 212 203 207 221 218 229
228 237 246 272 277 230 266 255 268 241 257 260 253 273 302 321 315 248 252 240 210 210 143 85 80 147 200 200 161 172 191 184 186 196 187 181 214 202 179 162 183 184 182 217 198 208 208 224 219
232 240 248 246 265 252 257 254 254 246 239 240 254 274 256 275 288 294 331 340 9 22 98 78 94 318 182 267 176 172 196 181 187 186 189 187 193 199 193 189 197 182 186 201 215 221 202 184 214
234 244 253 270 249 255 248 250 248 248 251 250 231 236 214 240 237 252 275 293 313 95 133 139 147 175 204 221 255 187 185 182 183 187 188 197 182 203 186 190 214 196 201 193 196 200 198 213 226
255 251 250 245 255 235 243 246 247 253 258 224 239 232 237 244 229 217 209 227 257 226 147 148 170 231 208 206 231 231 194 212 191 191 186 188 201 203 190 190 211 211 224 215 193 194 181 178 230
262 244 258 247 235 232 236 253 250 238 227 221 236 233 254 236 252 243 240 234 266 13 359 169 185 184 188 194 192 237 234 216 222 201 179 187 195 196 199 201 200 207 202 196 213 197 185 186 206
232 248 243 245 248 224 214 242 253 247 304 197 225 237 246 244 218 253 271 278 305 283 344 294 18 317 178 182 183 207 221 227 221 226 199 175 195 202 211 213 217 200 225 221 202 236 209 196 215
240 222 238 262 241 192 233 246 243 270 199 232 232 255 257 245 237 215 205 239 240 64 48 9 346 322 325 174 187 206 210 222 227 217 216 204 203 195 208 221 220 220 209 209 203 196 199 202 206
271 286 298 291 236 197 213 228 250 265 262 217 216 216 226 227 249 226 221 221 178 128 130 211 247 282 307 292 187 218 226 212 217 225 213 204 188 190 194 215 241 231 230 212 197 188 186 211 201
254 266 273 283 292 290 280 267 256 256 259 261 258 242 242 230 221 232 227 198 175 171 180 183 214 230 250 268 272 243 213 220 211 214 220 201 186 197 206 212 222 229 225 223 200 191 193 205 201
259 264 272 273 281 282 274 261 268 262 256 259 262 257 238 257 245 225 216 205 173 160 141 185 246 218 228 222 287 296 256 260 264 230 199 206 198 196 211 214 222 230 220 212 209 193 198 203 204
274 245 253 260 266 266 266 271 255 251 241 229 230 229 233 230 255 251 237 83 70 38 14 356 310 256 225 244 258 266 275 263 248 253 239 221 204 204 206 213 217 221 226 221 206 207 203 207 201
264 257 269 285 281 281 261 265 266 263 256 252 239 226 219 204 211 91 69 53 41 18 338 344 328 258 211 20 313 300 295 280 259 277 243 254 208 214 216 214 217 221 220 229 220 207 207 207 206
324 300 284 261 267 256 259 256 258 261 262 258 234 210 199 188 103 96 85 67 344 14 6 32 357 350 338 310 263 255 276 284 292 295 305 290 248 215 217 225 220 216 215 218 230 218 203 208 210
269 254 264 251 240 247 242 243 244 274 336 331 313 70 103 103 120 110 93 14 24 348 6 3 356 336 329 323 301 290 278 275 279 283 282 275 288 283 242 222 223 227 288 236 227 235 222 208 197
283 276 268 281 286 293 315 290 293 330 311 301 260 124 125 142 146 116 148 259 275 297 357 318 329 320 336 317 292 277 299 289 284 277 263 273 278 278 285 279 218 162 141 313 309 308 280 318 240
292 270 295 308 293 269 261 273 271 1 353 350 178 183 138 101 75 43 297 305 337 309 298 308 297 278 335 321 314 302 276 252 265 269 275 282 286 287 270 270 212 198 181 188 208 246 47 346 270
282 305 320 244 266 272 271 294 302 354 330 16 330 2 287 67 67 275 299 314 309 307 279 241 253 298 272 287 310 330 322 310 276 270 278 276 274 271 276 284 234 183 192 205 205 192 202 208 264
266 219 245 256 262 256 273 271 14 41 354 344 336 327 18 339 328 304 313 314 328 333 320 306 270 269 291 286 271 293 319 317 316 301 268 282 290 281 277 277 259 206 191 181 161 163 173 122 223
267 266 259 232 235 239 259 263 288 70 17 344 330 349 325 306 295 298 304 309 314 296 302 307 297 294 296 300 298 272 270 303 308 311 316 299 276 278 273 280 286 229 197 184 158 150 139 180 162